Time,TemperatureF,DewpointF,PressureIn,WindDirection,WindDirectionDegrees,WindSpeedMPH,WindSpeedGustMPH,Humidity,HourlyPrecipIn,Conditions,Clouds,dailyrainin,SoftwareType,DateUTC
2013-06-28 00:02:00,69.0,68.0,-100.00,NE,35,2.0,3.0,95,0.00,,,-99.99,,2013-06-28 04:02:00,
2013-06-28 00:43:00,69.0,68.0,-100.00,WSW,250,1.0,2.0,96,0.00,,,-99.99,,2013-06-28 04:43:00,
2013-06-28 01:01:00,69.0,68.0,-100.00,WSW,250,2.0,3.0,96,0.00,,,-99.99,,2013-06-28 05:01:00,
2013-06-28 01:11:00,69.0,68.0,-100.00,WSW,250,2.0,3.0,96,0.00,,,-99.99,,2013-06-28 05:11:00,
2013-06-28 01:22:00,68.0,67.0,-100.00,WNW,285,2.0,2.0,96,0.00,,,-99.99,,2013-06-28 05:22:00,
2013-06-28 01:43:00,68.0,67.0,-100.00,WSW,240,2.0,3.0,96,0.00,,,-99.99,,2013-06-28 05:43:00,
2013-06-28 01:53:00,68.0,67.0,-100.00,SW,235,4.0,4.0,96,0.00,,,-99.99,,2013-06-28 05:53:00,
2013-06-28 02:02:00,68.0,67.0,-100.00,SW,235,4.0,4.0,96,0.00,,,-99.99,,2013-06-28 06:02:00,
2013-06-28 02:12:00,68.0,67.0,-100.00,West,265,3.0,6.0,97,0.00,,,-99.99,,2013-06-28 06:12:00,
2013-06-28 02:33:00,68.0,68.0,-100.00,West,260,6.0,7.0,97,0.00,,,-99.99,,2013-06-28 06:33:00,
2013-06-28 02:52:00,68.0,68.0,-100.00,West,260,6.0,8.0,97,0.00,,,-99.99,,2013-06-28 06:52:00,
2013-06-28 03:01:00,68.0,68.0,-100.00,WSW,245,8.0,10.0,97,0.00,,,-99.99,,2013-06-28 07:01:00,
2013-06-28 03:11:00,68.0,68.0,-100.00,WSW,255,7.0,11.0,97,0.00,,,-99.99,,2013-06-28 07:11:00,
2013-06-28 03:22:00,68.0,68.0,-100.00,West,265,6.0,8.0,97,0.00,,,-99.99,,2013-06-28 07:22:00,
2013-06-28 03:33:00,68.0,68.0,-100.00,West,265,6.0,8.0,97,0.00,,,-99.99,,2013-06-28 07:33:00,
2013-06-28 03:43:00,68.0,67.0,-100.00,West,275,6.0,9.0,97,0.00,,,-99.99,,2013-06-28 07:43:00,
2013-06-28 03:52:00,68.0,67.0,-100.00,WNW,285,5.0,8.0,97,0.00,,,-99.99,,2013-06-28 07:52:00,
2013-06-28 04:02:00,68.0,67.0,-100.00,WNW,290,6.0,7.0,97,0.00,,,-99.99,,2013-06-28 08:02:00,
2013-06-28 04:11:00,68.0,67.0,-100.00,West,275,5.0,7.0,97,0.00,,,-99.99,,2013-06-28 08:11:00,
2013-06-28 04:22:00,68.0,67.0,-100.00,West,275,4.0,6.0,97,0.00,,,-99.99,,2013-06-28 08:22:00,
2013-06-28 04:43:00,67.0,67.0,-100.00,West,270,4.0,6.0,97,0.00,,,-99.99,,2013-06-28 08:43:00,
2013-06-28 04:52:00,68.0,67.0,-100.00,West,270,4.0,6.0,97,0.00,,,-99.99,,2013-06-28 08:52:00,
2013-06-28 05:52:00,69.0,69.0,-100.00,North,350,2.0,6.0,97,0.00,,,-99.99,,2013-06-28 09:52:00,
2013-06-28 06:02:00,69.0,69.0,-100.00,North,350,2.0,6.0,97,0.00,,,-99.99,,2013-06-28 10:02:00,
2013-06-28 06:12:00,70.0,69.0,-100.00,North,350,2.0,7.0,97,0.00,,,-99.99,,2013-06-28 10:12:00,
2013-06-28 06:22:00,70.0,69.0,-100.00,North,0,4.0,6.0,97,0.00,,,-99.99,,2013-06-28 10:22:00,
2013-06-28 06:33:00,69.0,69.0,-100.00,NNW,345,2.0,6.0,97,0.00,,,-99.99,,2013-06-28 10:33:00,
2013-06-28 06:42:00,69.0,69.0,-100.00,NNE,15,4.0,6.0,97,0.00,,,-99.99,,2013-06-28 10:42:00,
2013-06-28 07:02:00,69.0,68.0,-100.00,North,5,1.0,3.0,97,0.00,,,-99.99,,2013-06-28 11:02:00,
2013-06-28 07:11:00,69.0,68.0,-100.00,NNE,15,2.0,4.0,97,0.00,,,-99.99,,2013-06-28 11:11:00,
2013-06-28 07:22:00,69.0,68.0,-100.00,North,0,1.0,3.0,97,0.00,,,-99.99,,2013-06-28 11:22:00,
2013-06-28 07:34:00,69.0,68.0,-100.00,North,0,1.0,3.0,97,0.00,,,-99.99,,2013-06-28 11:34:00,
2013-06-28 07:43:00,69.0,69.0,-100.00,NNW,340,1.0,4.0,97,0.00,,,-99.99,,2013-06-28 11:43:00,
2013-06-28 07:53:00,69.0,69.0,-100.00,NNW,340,1.0,4.0,97,0.00,,,-99.99,,2013-06-28 11:53:00,
2013-06-28 08:02:00,69.0,69.0,-100.00,NNW,340,1.0,4.0,97,0.00,,,-99.99,,2013-06-28 12:02:00,
2013-06-28 08:12:00,69.0,69.0,-100.00,North,10,1.0,3.0,97,0.00,,,-99.99,,2013-06-28 12:12:00,
2013-06-28 08:43:00,71.0,71.0,-100.00,NW,310,2.0,6.0,97,0.00,,,-99.99,,2013-06-28 12:43:00,
2013-06-28 09:01:00,73.0,72.0,-100.00,NW,310,5.0,7.0,97,0.00,,,-99.99,,2013-06-28 13:01:00,
2013-06-28 09:11:00,72.0,71.0,-100.00,WNW,300,7.0,8.0,97,0.00,,,-99.99,,2013-06-28 13:11:00,
2013-06-28 09:23:00,71.0,70.0,-100.00,West,275,7.0,9.0,97,0.00,,,-99.99,,2013-06-28 13:23:00,
2013-06-28 09:33:00,71.0,70.0,-100.00,West,275,7.0,9.0,97,0.00,,,-99.99,,2013-06-28 13:33:00,
2013-06-28 09:43:00,71.0,71.0,-100.00,NW,305,7.0,10.0,97,0.00,,,-99.99,,2013-06-28 13:43:00,
2013-06-28 10:44:00,76.0,69.0,-100.00,WNW,285,7.0,10.0,77,0.00,,,-99.99,,2013-06-28 14:44:00,
2013-06-28 11:02:00,76.0,69.0,-100.00,WNW,285,5.0,10.0,77,0.00,,,-99.99,,2013-06-28 15:02:00,
2013-06-28 12:02:00,79.0,66.0,-100.00,West,280,9.0,14.0,64,0.00,,,-99.99,,2013-06-28 16:02:00,
2013-06-28 12:44:00,81.0,65.0,-100.00,WNW,290,11.0,18.0,57,0.00,,,-99.99,,2013-06-28 16:44:00,
2013-06-28 13:02:00,81.0,65.0,-100.00,West,280,7.0,16.0,57,0.00,,,-99.99,,2013-06-28 17:02:00,
2013-06-28 13:11:00,81.0,64.0,-100.00,NW,305,13.0,22.0,57,0.00,,,-99.99,,2013-06-28 17:11:00,
2013-06-28 13:22:00,81.0,65.0,-100.00,West,280,9.0,20.0,56,0.00,,,-99.99,,2013-06-28 17:22:00,
2013-06-28 13:33:00,81.0,64.0,-100.00,West,275,14.0,19.0,57,0.00,,,-99.99,,2013-06-28 17:33:00,
2013-06-28 13:44:00,82.0,64.0,-100.00,WNW,290,16.0,21.0,55,0.00,,,-99.99,,2013-06-28 17:44:00,
2013-06-28 14:11:00,81.0,64.0,-100.00,West,270,14.0,20.0,56,0.00,,,-99.99,,2013-06-28 18:11:00,
2013-06-28 14:22:00,83.0,65.0,-100.00,West,275,12.0,19.0,54,0.00,,,-99.99,,2013-06-28 18:22:00,
2013-06-28 14:33:00,83.0,65.0,-100.00,WNW,295,12.0,19.0,54,0.00,,,-99.99,,2013-06-28 18:33:00,
2013-06-28 14:43:00,82.0,63.0,-100.00,WNW,295,14.0,21.0,52,0.00,,,-99.99,,2013-06-28 18:43:00,
2013-06-28 15:43:00,84.0,63.0,-100.00,WNW,290,11.0,19.0,48,0.00,,,-99.99,,2013-06-28 19:43:00,
2013-06-28 16:02:00,83.0,63.0,-100.00,NW,315,10.0,17.0,50,0.00,,,-99.99,,2013-06-28 20:02:00,
2013-06-28 16:43:00,79.0,62.0,-100.00,NW,310,14.0,20.0,56,0.00,,,-99.99,,2013-06-28 20:43:00,
2013-06-28 17:02:00,76.0,59.0,-100.00,NW,310,10.0,19.0,56,1.10,,,-99.99,,2013-06-28 21:02:00,
2013-06-28 18:52:00,68.0,65.0,-100.00,West,280,2.0,3.0,90,0.00,,,-99.99,,2013-06-28 22:52:00,
2013-06-28 19:02:00,69.0,67.0,-100.00,WNW,300,2.0,3.0,91,0.00,,,-99.99,,2013-06-28 23:02:00,
2013-06-28 19:34:00,71.0,68.0,-100.00,NNE,30,2.0,4.0,91,0.00,,,-99.99,,2013-06-28 23:34:00,
2013-06-28 19:43:00,71.0,68.0,-100.00,NNE,15,4.0,6.0,91,0.00,,,-99.99,,2013-06-28 23:43:00,
2013-06-28 19:53:00,72.0,69.0,-100.00,NW,310,1.0,4.0,90,0.00,,,-99.99,,2013-06-28 23:53:00,
2013-06-28 20:02:00,73.0,69.0,-100.00,North,0,1.0,2.0,88,0.00,,,-99.99,,2013-06-29 00:02:00,
2013-06-28 20:11:00,73.0,69.0,-100.00,North,0,2.0,2.0,86,0.00,,,-99.99,,2013-06-29 00:11:00,
2013-06-28 20:23:00,72.0,68.0,-100.00,North,5,2.0,4.0,86,0.00,,,-99.99,,2013-06-29 00:23:00,
2013-06-28 20:33:00,73.0,68.0,-100.00,NE,40,1.0,1.0,84,0.00,,,-99.99,,2013-06-29 00:33:00,
2013-06-28 20:42:00,72.0,67.0,-100.00,NNE,20,2.0,3.0,84,0.00,,,-99.99,,2013-06-29 00:42:00,
2013-06-28 20:52:00,71.0,68.0,-100.00,ENE,75,7.0,9.0,89,0.00,,,-99.99,,2013-06-29 00:52:00,
2013-06-28 21:01:00,71.0,68.0,-100.00,ENE,75,7.0,9.0,89,0.00,,,-99.99,,2013-06-29 01:01:00,
2013-06-28 21:11:00,69.0,67.0,-100.00,NE,45,7.0,9.0,91,0.00,,,-99.99,,2013-06-29 01:11:00,
2013-06-28 21:22:00,69.0,66.0,-100.00,NE,50,7.0,9.0,91,0.00,,,-99.99,,2013-06-29 01:22:00,
2013-06-28 21:32:00,68.0,66.0,-100.00,NE,45,5.0,8.0,91,0.00,,,-99.99,,2013-06-29 01:32:00,
2013-06-28 21:42:00,68.0,65.0,-100.00,NE,45,5.0,9.0,91,0.00,,,-99.99,,2013-06-29 01:42:00,
2013-06-28 21:51:00,68.0,65.0,-100.00,NE,45,5.0,9.0,91,0.00,,,-99.99,,2013-06-29 01:51:00,
2013-06-28 22:01:00,67.0,65.0,-100.00,ENE,60,4.0,7.0,92,0.00,,,-99.99,,2013-06-29 02:01:00,
2013-06-28 22:11:00,67.0,64.0,-100.00,ENE,70,4.0,6.0,92,0.00,,,-99.99,,2013-06-29 02:11:00,
2013-06-28 22:21:00,66.0,64.0,-100.00,ENE,75,4.0,4.0,93,0.00,,,-99.99,,2013-06-29 02:21:00,
2013-06-28 22:31:00,66.0,64.0,-100.00,East,90,2.0,3.0,94,0.00,,,-99.99,,2013-06-29 02:31:00,
2013-06-28 22:41:00,65.0,64.0,-100.00,NE,50,4.0,4.0,94,0.00,,,-99.99,,2013-06-29 02:41:00,
2013-06-28 22:51:00,65.0,63.0,-100.00,NE,45,2.0,4.0,94,0.00,,,-99.99,,2013-06-29 02:51:00,
2013-06-28 23:01:00,64.0,63.0,-100.00,ENE,75,0.0,1.0,95,0.00,,,-99.99,,2013-06-29 03:01:00,
2013-06-28 23:11:00,64.0,63.0,-100.00,South,185,3.0,3.0,95,0.00,,,-99.99,,2013-06-29 03:11:00,
2013-06-28 23:21:00,64.0,62.0,-100.00,South,180,1.0,3.0,96,0.00,,,-99.99,,2013-06-29 03:21:00,
2013-06-28 23:32:00,63.0,62.0,-100.00,SW,230,1.0,1.0,96,0.00,,,-99.99,,2013-06-29 03:32:00,
2013-06-28 23:41:00,63.0,62.0,-100.00,WSW,255,2.0,2.0,96,0.00,,,-99.99,,2013-06-29 03:41:00,
2013-06-28 23:51:00,64.0,62.0,-100.00,WSW,250,2.0,4.0,96,0.00,,,-99.99,,2013-06-29 03:51:00,